This demonstration page uses our WeatherBlox Daily Observations layout. Learn more.

Hourly Observations for July 28, 2020

Temp ( °F °C ) Dew Point ( °F °C ) Humidity (%) Winds ( mph kmh ) Pressure ( in mb ) Visibility ( mi km ) Precip ( " mm )
12:15 am 00:15 Clear 66 19.1 64 17.7 92 92 SE 5 7 30.01 1016 10 16.0934 0 0
12:35 am 00:35 Clear 66 19.1 64 17.9 93 93 SE 6 9 30.01 1016 10 16.0934 0 0
12:55 am 00:55 Clear 66 19.1 64 17.9 93 93 SE 3 6 30.01 1016 10 16.0934 0 0
1:15 am 01:15 Clear 66 19 64 17.7 92 92 Calm 30.01 1016 10 16.0934 0 0
1:35 am 01:35 Clear 65 18.2 63 17.4 95 95 Calm 30.01 1016 10 16.0934 0 0
1:55 am 01:55 Clear 65 18.5 63 17.4 93 93 SE 5 7 30.01 1016 10 16.0934 0 0
2:15 am 02:15 Clear 65 18.5 63 17.3 93 93 SE 5 7 30 1016 10 16.0934 0 0
2:35 am 02:35 Clear 66 18.7 64 17.7 94 94 SSE 3 6 30 1016 10 16.0934 0 0
2:55 am 02:55 Clear 66 18.7 64 17.6 93 93 Calm 30 1016 10 16.0934 0 0
3:15 am 03:15 Clear 66 18.7 64 17.7 94 94 Calm 30 1016 10 16.0934 0 0
3:35 am 03:35 Clear 65 18.6 64 17.6 94 94 Calm 29.99 1016 10 16.0934 0 0
3:55 am 03:55 Clear 64 18 63 17.2 95 95 SSE 3 6 29.98 1015 10 16.0934 0 0
4:15 am 04:15 Clear 65 18.5 64 17.8 96 96 SSE 3 6 29.99 1016 10 16.0934 0 0
4:35 am 04:35 Clear 66 18.7 64 18 96 96 S 3 6 29.99 1016 10 16.0934 0 0
4:55 am 04:55 Clear 66 18.8 65 18.1 96 96 S 3 6 29.99 1015 10 16.0934 0 0
5:15 am 05:15 Clear 66 18.7 64 18 96 96 Calm 29.99 1016 7 11.26538 0 0
5:35 am 05:35 Clear 65 18.5 64 18 97 97 S 3 6 29.98 1015 7 11.26538 0 0
5:55 am 05:55 Partly Cloudy with Mist and Fog 65 18.1 64 17.6 97 97 Calm 29.97 1015 4 6.43736 0 0
6:15 am 06:15 Cloudy with Mist and Fog 65 18.4 64 17.9 97 97 Calm 29.98 1015 0.75 1.207005 0 0
6:35 am 06:35 Cloudy with Fog 65 18.4 64 18 98 98 Calm 30 1016 0.5 0.80467 0 0
6:55 am 06:55 Cloudy with Fog 66 19.1 66 18.7 98 98 Calm 29.99 1016 N/A 0 0
7:15 am 07:15 Cloudy with Fog 67 19.6 67 19.2 98 98 Calm 29.99 1016 N/A 0 0
7:35 am 07:35 Cloudy with Fog 68 20 67 19.6 98 98 Calm 29.99 1015 N/A 0 0
7:55 am 07:55 Cloudy with Fog 68 20.2 68 19.8 98 98 SW 3 6 29.99 1015 N/A 0 0
8:15 am 08:15 Cloudy with Fog 69 20.5 68 20 97 97 S 3 6 29.98 1015 N/A 0 0
8:35 am 08:35 Cloudy with Fog 69 20.5 68 20 97 97 SSW 6 9 29.98 1015 0.5 0.80467 0 0
8:55 am 08:55 Cloudy with Fog 70 20.9 69 20.5 98 98 SSW 5 7 29.98 1015 0.5 0.80467 0 0
9:15 am 09:15 Cloudy with Mist and Fog 70 21.1 69 20.7 98 98 S 3 6 29.98 1015 0.75 1.207005 0 0
9:35 am 09:35 Cloudy 71 21.4 70 21 98 98 SSW 6 9 29.98 1015 10 16.0934 0 0
9:55 am 09:55 Cloudy 71 21.6 70 21.2 98 98 S 6 9 29.97 1015 10 16.0934 0 0
10:15 am 10:15 Cloudy 72 22.1 71 21.6 97 97 S 6 9 29.97 1015 10 16.0934 0 0
10:35 am 10:35 Cloudy 76 24.7 70 21.2 81 81 SSW 5 7 29.95 1014 10 16.0934 0 0
10:55 am 10:55 Cloudy 76 24.6 69 20.3 77 77 WSW 6 9 29.93 1014 10 16.0934 0 0
11:15 am 11:15 Mostly Cloudy 77 24.8 68 20.2 76 76 Calm 29.93 1013 10 16.0934 0 0
11:35 am 11:35 Mostly Cloudy 78 25.8 68 20.2 71 71 SSW 5 7 29.91 1013 10 16.0934 0 0
11:55 am 11:55 Mostly Cloudy 79 25.9 68 20 70 70 SSW 5 7 29.93 1014 10 16.0934 0 0
12:15 pm 12:15 Mostly Cloudy 79 26 68 19.9 69 69 SSW 3 6 29.93 1013 10 16.0934 0 0
12:35 pm 12:35 Cloudy 81 27 68 20 66 66 S 8 13 29.9 1013 10 16.0934 0 0
12:55 pm 12:55 Mostly Cloudy 81 27.2 67 19.3 62 62 Calm 29.91 1013 10 16.0934 0 0
1:15 pm 13:15 Partly Cloudy 82 28 66 18.7 57 57 S 6 9 29.89 1012 10 16.0934 0 0
1:35 pm 13:35 Partly Cloudy 82 27.9 66 19 58 58 SSE 6 9 29.89 1012 10 16.0934 0 0
1:55 pm 13:55 Mostly Cloudy 82 28 67 19.2 59 59 SSE 6 9 29.88 1012 10 16.0934 0 0
2:15 pm 14:15 Mostly Cloudy 83 28.4 67 19.2 57 57 SSE 7 11 29.87 1012 10 16.0934 0 0
2:35 pm 14:35 Mostly Cloudy 82 27.6 67 19.3 61 61 SSE 8 13 29.88 1012 10 16.0934 0 0
2:55 pm 14:55 Partly Cloudy 83 28.3 66 19 57 57 SSE 8 13 29.87 1012 10 16.0934 0 0
3:10 pm 15:10 Partly Cloudy 84 28.7 65 18.3 53 53 SE 9 15 29.86 1011 10 16.0934 0 0
3:35 pm 15:35 Partly Cloudy 83 28.5 66 18.7 55 55 S 7 11 29.86 1011 10 16.0934 0 0
3:55 pm 15:55 Partly Cloudy 84 29 65 18.6 53 53 SSE 7 11 29.85 1011 10 16.0934 0 0
4:15 pm 16:15 Partly Cloudy 84 28.8 64 18 52 52 SSE 8 13 29.84 1010 10 16.0934 0 0
4:35 pm 16:35 Partly Cloudy 85 29.3 65 18.2 51 51 S 9 15 29.82 1010 10 16.0934 0 0
4:55 pm 16:55 Partly Cloudy 85 29.3 65 18.3 52 52 S 9 15 29.82 1010 10 16.0934 0 0
5:15 pm 17:15 Partly Cloudy 85 29.2 64 17.8 50 50 SE 6 9 29.81 1010 10 16.0934 0 0
5:35 pm 17:35 Sunny 84 29.1 64 17.8 51 51 SSE 5 7 29.8 1009 10 16.0934 0 0
5:55 pm 17:55 Sunny 85 29.6 64 17.5 48 48 SSE 8 13 29.8 1009 10 16.0934 0 0
6:15 pm 18:15 Sunny 85 29.3 64 17.7 50 50 SSE 8 13 29.8 1009 10 16.0934 0 0
6:55 pm 18:55 Partly Cloudy 84 29 65 18.5 53 53 SSE 6 9 29.79 1009 10 16.0934 0 0
7:15 pm 19:15 Partly Cloudy 83 28.6 67 19.5 58 58 ESE 6 9 29.78 1008 10 16.0934 0 0
7:35 pm 19:35 Partly Cloudy 83 28.2 68 19.8 60 60 SE 5 7 29.79 1009 10 16.0934 0 0
7:55 pm 19:55 Partly Cloudy 82 28 69 20.4 63 63 SE 5 7 29.79 1009 10 16.0934 0 0
8:15 pm 20:15 Sunny 80 26.9 69 20.5 68 68 SE 5 7 29.79 1009 10 16.0934 0 0
8:35 pm 20:35 Partly Cloudy 79 26 70 21 74 74 Calm 29.81 1009 10 16.0934 0 0
8:55 pm 20:55 Partly Cloudy 77 25.1 69 20.8 77 77 SE 3 6 29.82 1010 10 16.0934 0 0
9:15 pm 21:15 Clear 76 24.2 70 20.9 82 82 SE 5 7 29.83 1010 10 16.0934 0 0
9:35 pm 21:35 Clear 74 23.6 69 20.7 84 84 SE 3 6 29.85 1011 10 16.0934 0 0
9:55 pm 21:55 Clear 74 23.1 69 20.5 85 85 SSE 5 7 29.86 1011 10 16.0934 0 0
10:15 pm 22:15 Clear 73 22.7 69 20.5 87 87 SSE 5 7 29.87 1011 10 16.0934 0 0
10:35 pm 22:35 Clear 73 22.6 69 20.5 88 88 SE 5 7 29.87 1011 10 16.0934 0 0
10:55 pm 22:55 Clear 72 22.4 69 20.4 89 89 SE 5 7 29.87 1011 10 16.0934 0 0
11:15 pm 23:15 Clear 72 22.1 69 20.3 90 90 SSE 3 6 29.87 1012 10 16.0934 0 0
11:35 pm 23:35 Clear 72 22 69 20.4 91 91 SSE 5 7 29.87 1012 10 16.0934 0 0
11:55 pm 23:55 Clear 71 21.5 68 20.1 92 92 Calm 29.88 1012 10 16.0934 0 0

Powered by AerisWeather